Change the Weather History Date:

Monday, February 18, 2013

  Actual Average Record
Temperature  
Mean Temperature 8 °F -  
Max Temperature 15 °F 28 °F 58 °F (1981)
Min Temperature 0 °F 10 °F -31 °F (1966)
Degree Days  
Heating Degree Days 58    
Moisture  
Dew Point 1 °F    
Average Humidity 79    
Maximum Humidity 85    
Minimum Humidity 72    
Precipitation  
Precipitation 0.00 in - - ()
Sea Level Pressure  
Sea Level Pressure 29.92 in    
Wind  
Wind Speed 25 mph (NW)    
Max Wind Speed 29 mph    
Max Gust Speed 41 mph    
Visibility 5 miles    
Events      
Averages and records for this station are not official NWS values.
T = Trace of Precipitation, MM = Missing Value Source: NWS Daily Summary

Daily Weather History Graph

Daily Weather History Graph

Search for Another Location

Airport or City:

Trip Planner

Search our weather history database for the weather conditions in past years. The results will help you decide how hot, cold, wet, or windy it might be!

Date:

Astronomy

Feb. 18, 2013 Rise Set
Actual Time 7:23 AM CST 5:57 PM CST
Civil Twilight 6:52 AM CST 6:28 PM CST
Nautical Twilight 6:18 AM CST 7:02 PM CST
Astronomical Twilight 5:43 AM CST 7:37 PM CST
Moon 11:35 AM CST (2/18) 2:12 AM CST (2/18)
Length of Visible Light 11h 35m
Length of Day
10h 34m
First Quarter, 58% of the Moon is Illuminated
Feb 18
First Quarter
Feb 25
Full
Mar 4
Last Quarter
Mar 11
New
Mar 19
First Quarter

Hourly Weather History & Observations

Time (CST) Temp. Windchill Dew Point Humidity Pressure Visibility Wind Dir Wind Speed Gust Speed Precip Events Conditions
9:41 AM 15.8 °F -3.1 °F 10.4 °F 79% 29.75 in 4.0 mi WNW 25.3 mph 33.4 mph N/A   Overcast
10:01 AM 12.2 °F -8.6 °F 8.6 °F 85% 29.76 in 7.0 mi WNW 27.6 mph 35.7 mph N/A   Overcast
10:41 AM 12.2 °F -8.6 °F 8.6 °F 85% 29.79 in 5.0 mi WNW 27.6 mph 32.2 mph N/A   Overcast
11:01 AM 12.2 °F -8.9 °F 6.8 °F 79% 29.81 in 2.5 mi WNW 28.8 mph 34.5 mph N/A   Overcast
11:41 AM 12.2 °F -8.9 °F 5.0 °F 73% 29.83 in 5.0 mi NW 28.8 mph 41.4 mph N/A   Overcast
12:21 PM 12.2 °F -7.1 °F 6.8 °F 79% 29.84 in 4.0 mi WNW 23.0 mph 35.7 mph N/A   Overcast
12:41 PM 10.4 °F -10.3 °F 5.0 °F 79% 29.84 in 4.0 mi NW 25.3 mph 38.0 mph N/A   Overcast
1:01 PM 10.4 °F -9.9 °F 3.2 °F 73% 29.84 in 5.0 mi NW 24.2 mph 34.5 mph N/A   Overcast
1:21 PM 10.4 °F -11.4 °F 5.0 °F 79% 29.84 in 2.0 mi NW 28.8 mph 36.8 mph N/A   Overcast
1:41 PM 10.4 °F -11.0 °F 5.0 °F 79% 29.86 in 5.0 mi NW 27.6 mph 33.4 mph N/A   Mostly Cloudy
2:01 PM 10.4 °F -9.9 °F 5.0 °F 79% 29.86 in 2.0 mi NW 24.2 mph 31.1 mph N/A   Overcast
3:01 PM 8.6 °F -12.7 °F 3.2 °F 79% 29.89 in 1.5 mi NW 25.3 mph 33.4 mph N/A   Overcast
3:21 PM 8.6 °F -13.4 °F 3.2 °F 79% 29.90 in 2.5 mi NW 27.6 mph 36.8 mph N/A   Mostly Cloudy
4:21 PM 6.8 °F -15.5 °F -0.4 °F 72% 29.92 in 4.0 mi NW 26.5 mph 38.0 mph N/A   Scattered Clouds
5:01 PM 5.0 °F -17.5 °F -0.4 °F 78% 29.94 in 5.0 mi NW 25.3 mph 35.7 mph N/A   Scattered Clouds
6:01 PM 5.0 °F -17.5 °F -2.2 °F 72% 29.98 in 7.0 mi NW 25.3 mph 33.4 mph N/A   Scattered Clouds
6:21 PM 3.2 °F -17.1 °F -0.4 °F 85% 29.99 in 3.0 mi NW 18.4 mph 28.8 mph N/A   Overcast
7:01 PM 3.2 °F -18.1 °F -2.2 °F 78% 30.00 in 7.0 mi WNW 20.7 mph 29.9 mph N/A   Mostly Cloudy
7:41 PM -0.4 °F -22.3 °F -4.0 °F 85% 30.02 in 4.0 mi NW 19.6 mph - N/A   Overcast
8:01 PM -0.4 °F -22.3 °F -4.0 °F 85% 30.02 in 10.0 mi NW 19.6 mph 27.6 mph N/A   Overcast
8:21 PM -0.4 °F -22.3 °F -4.0 °F 85% 30.03 in 10.0 mi NW 19.6 mph 27.6 mph N/A   Mostly Cloudy
9:21 PM -0.4 °F -23.3 °F -5.8 °F 78% 30.05 in 10.0 mi NW 21.9 mph 28.8 mph N/A   Scattered Clouds
10:01 PM -0.4 °F -23.3 °F -5.8 °F 78% 30.06 in 10.0 mi NW 21.9 mph 29.9 mph N/A   Mostly Cloudy
10:21 PM -0.4 °F -22.8 °F -5.8 °F 78% 30.06 in 10.0 mi WNW 20.7 mph 26.5 mph N/A   Overcast
11:01 PM -0.4 °F -23.8 °F -5.8 °F 78% 30.08 in 5.0 mi NW 23.0 mph 32.2 mph N/A   Overcast
11:41 PM -0.4 °F -24.7 °F -5.8 °F 78% 30.09 in 5.0 mi NW 25.3 mph 32.2 mph N/A   Overcast